Location: Dover
(39.1580°N, 75.5250°W)
Time: 22:12:27
(UTC-04:00)

SeaSat 1 - Visible Passes

Search period start: 23 March 2017 00:00
Search period end: 02 April 2017 00:00
Orbit: 745 x 748 km, 108.0° (Epoch: 22 March)

Date Brightness Start Highest point End Pass type
(mag) Time Alt. Az. Time Alt. Az. Time Alt. Az.
23 Mar 4.5 20:52:44 10° SSW 20:56:50 26° WSW 21:00:58 10° NW visible
24 Mar 2.7 20:09:47 10° SSE 20:14:42 73° WSW 20:19:39 10° NNW visible
25 Mar 4.6 21:06:31 10° SSW 21:10:27 24° WSW 21:14:24 10° NW visible
26 Mar 2.8 20:23:23 10° SSE 20:28:17 66° WSW 20:33:12 10° NNW visible
27 Mar 2.8 19:41:42 10° SE 19:46:23 47° ENE 19:51:06 10° NNW visible
27 Mar 4.7 21:20:20 10° SSW 21:24:03 21° WSW 21:27:49 10° WNW visible
28 Mar 3.0 20:37:01 10° SSE 20:41:52 59° WSW 20:46:45 10° NNW visible
29 Mar 2.7 19:55:11 10° SE 19:59:57 52° ENE 20:04:44 10° NNW visible
29 Mar 4.8 21:34:11 10° SSW 21:37:41 19° WSW 21:41:12 10° WNW visible
30 Mar 3.1 20:50:40 10° S 20:55:27 53° WSW 21:00:18 10° NW visible
31 Mar 2.6 20:08:41 10° SE 20:13:31 57° ENE 20:18:21 10° NNW visible
31 Mar 4.8 21:48:04 10° SSW 21:51:18 17° WSW 21:54:33 10° WNW visible
01 Apr 3.3 21:04:41 12° S 21:09:03 48° WSW 21:13:50 10° NW visible
